GFSSW_850_thetae_000.txt.gz
Theta_e
320 318 316 314 314 314 315 314 314 315 315 315 316 314 315 316 317 316 315 314 314 315 314 314 318 318 317 314 316 316 311 312 313 313 312 312 310 312 313 311 311 312 313 314 312
319 317 315 314 314 315 315 313 314 316 315 315 314 314 314 316 316 315 314 315 315 315 314 313 316 317 316 314 316 312 310 312 310 311 311 311 310 311 311 310 310 311 314 313 312
318 315 314 314 314 315 314 313 314 315 315 314 314 313 314 316 316 314 314 315 315 315 313 312 316 316 314 313 313 312 311 310 312 313 313 310 310 312 308 308 313 313 315 314 313
317 314 314 314 315 315 314 313 314 315 314 315 315 315 316 316 314 314 316 316 315 315 313 313 314 316 311 311 312 312 311 311 312 312 312 310 312 310 310 313 315 314 314 313 314
318 315 314 314 315 315 314 312 314 315 315 317 316 316 316 316 315 316 317 318 318 318 314 312 315 315 313 311 310 309 309 311 312 311 310 310 309 308 309 315 315 315 315 315 316
319 315 314 315 315 315 314 313 314 315 315 317 316 316 317 314 316 317 318 318 318 317 316 313 313 315 313 310 310 310 309 309 312 311 310 308 308 308 312 315 315 315 316 316 316
319 315 314 315 315 314 314 314 315 315 316 317 316 316 317 316 316 317 319 318 318 317 317 315 316 316 314 310 311 309 308 306 310 311 309 306 308 306 315 315 313 314 315 315 315
319 315 314 314 314 314 314 314 316 315 316 317 316 316 317 316 317 317 316 316 316 314 314 315 313 312 311 311 309 309 308 310 310 309 312 311 314 312 314 313 313 313 314 314 314
318 314 314 314 314 314 315 315 315 316 315 318 315 317 316 317 318 316 315 316 314 313 313 313 311 310 309 308 308 307 312 310 309 311 309 312 313 312 313 312 311 312 312 312 313
316 314 313 313 314 314 313 314 316 316 317 318 315 315 317 316 316 315 314 314 314 313 313 313 310 307 306 309 314 312 310 310 310 310 309 309 310 311 313 313 313 313 313 313 313
316 313 312 312 313 312 312 311 311 313 314 314 313 315 317 316 315 314 313 313 315 312 310 309 309 311 310 310 310 309 309 309 311 311 309 310 311 312 313 313 313 311 313 311 308
315 313 311 311 311 309 307 306 307 309 313 314 315 317 316 315 314 314 314 315 314 311 309 309 309 311 309 309 310 310 309 311 311 310 311 310 311 311 311 311 311 311 309 308 305
314 312 311 309 310 308 306 305 306 312 312 312 315 316 314 314 312 313 313 313 309 310 310 312 309 310 310 311 311 310 310 310 310 310 310 308 309 307 307 308 309 309 308 306 304
314 312 311 307 307 306 305 304 306 313 306 310 315 315 314 312 311 312 312 313 311 312 310 308 309 311 311 310 309 312 309 308 308 309 306 307 308 306 307 307 308 305 303 304 300
313 311 309 307 305 304 304 303 308 309 318 312 315 313 314 311 310 312 312 310 310 310 309 307 309 309 309 309 309 310 307 307 307 304 305 306 306 309 306 307 307 300 299 299 299
312 308 305 305 306 304 303 304 311 311 318 310 314 311 308 309 311 313 310 309 308 306 305 305 307 307 308 308 307 307 305 305 305 303 308 306 305 307 306 306 301 299 298 299 299
309 306 304 303 304 303 303 309 309 316 311 309 312 310 309 308 309 307 308 304 308 309 309 307 308 307 308 305 304 306 305 307 302 302 306 303 302 301 304 305 300 297 298 297 300
306 301 302 302 303 303 303 303 311 313 309 308 311 309 307 306 308 306 306 301 305 307 307 307 304 306 303 305 307 304 306 304 306 301 299 299 301 302 298 298 297 297 296 297 299
302 300 300 302 302 302 307 303 312 306 305 311 307 305 310 309 305 303 304 305 299 300 307 306 305 304 302 303 302 301 306 302 299 296 297 299 300 298 296 295 296 296 296 297 297
300 298 299 301 301 303 301 304 305 301 311 311 306 304 305 309 304 305 304 302 301 298 300 302 302 302 300 299 301 295 295 298 296 294 294 295 294 294 294 295 295 295 295 294 294
298 298 301 302 305 311 301 300 303 307 310 310 308 305 307 306 304 305 302 297 297 296 296 297 299 299 295 296 293 293 294 293 293 294 291 292 292 294 294 295 294 295 293 293 294
297 298 302 306 307 305 304 304 309 310 309 306 307 307 304 302 302 303 304 297 296 295 293 295 294 294 293 294 293 293 292 293 293 292 292 294 294 295 294 294 294 293 292 292 292
298 299 302 309 303 303 308 309 308 306 306 305 305 302 299 299 300 300 299 294 294 293 293 294 295 291 292 293 292 292 293 293 293 294 294 293 293 294 294 293 292 292 292 291 292
299 302 305 310 307 304 307 306 308 304 304 302 300 297 297 297 297 297 297 294 294 294 295 295 296 295 291 292 292 292 293 293 293 294 293 293 293 293 292 291 291 291 291 291 291
298 304 304 310 307 307 306 304 305 304 303 299 297 297 297 296 295 295 294 293 293 294 294 293 293 292 292 292 292 293 293 293 293 293 293 292 291 290 290 290 290 291 291 291 291
301 302 302 304 304 307 306 304 304 303 302 301 299 296 295 296 296 295 293 293 293 293 293 293 292 292 292 293 292 292 292 292 292 291 289 289 290 290 290 290 291 291 291 291 291
299 302 303 302 301 305 305 304 305 304 301 299 297 294 294 294 294 294 293 293 293 293 293 292 293 287 286 291 291 287 289 289 289 289 289 289 290 290 290 291 291 291 291 291 291

GFSSW_850_thetae_003.txt.gz
Theta_e
316 315 314 314 314 315 313 313 314 315 315 315 315 314 314 316 315 315 316 314 315 315 314 314 314 316 316 315 316 315 312 312 313 312 313 312 311 312 313 311 311 312 313 314 314
315 314 314 314 315 315 313 313 314 314 315 317 316 316 315 316 315 316 314 315 315 315 314 314 315 315 316 314 315 311 311 312 310 310 312 311 310 311 311 310 310 312 314 313 313
315 314 314 314 315 315 313 313 314 315 315 316 316 316 316 316 316 314 316 316 315 315 315 314 314 315 315 313 312 311 312 310 311 313 312 311 310 311 308 310 314 314 314 313 313
318 315 315 315 315 315 314 314 314 316 315 318 318 316 316 315 314 315 317 318 318 317 315 314 314 315 311 312 312 312 311 311 311 312 312 310 311 309 310 314 315 313 312 313 314
319 317 316 315 315 315 314 314 315 317 316 319 318 316 316 316 316 316 318 318 316 316 317 316 314 314 314 311 310 309 309 310 310 309 309 310 309 308 309 314 313 313 314 314 314
320 318 316 315 315 315 315 315 316 318 317 320 318 316 317 315 316 317 318 315 312 313 315 315 314 315 313 310 310 309 308 308 310 310 308 308 309 308 313 312 314 314 314 313 312
321 318 316 315 315 315 315 316 318 319 317 320 317 316 317 316 317 318 317 314 311 311 313 314 315 314 314 311 310 308 307 307 311 309 309 307 308 306 313 313 313 312 312 312 307
320 318 316 315 314 315 316 317 320 320 318 318 317 317 316 316 317 314 314 314 313 312 312 312 311 312 311 310 308 308 308 312 311 308 312 312 313 311 313 312 312 312 312 308 305
320 318 315 314 314 315 316 319 320 320 319 319 316 316 317 317 315 310 311 314 314 312 312 312 311 310 309 308 310 308 313 311 310 308 308 311 312 310 312 311 311 311 307 306 301
320 318 315 314 314 316 315 318 319 318 318 318 316 315 316 316 315 311 312 313 313 311 312 313 311 307 306 310 314 313 310 310 309 309 308 309 311 311 309 308 310 307 306 302 301
321 317 314 313 314 315 316 317 314 314 315 315 314 314 316 314 315 312 313 314 311 310 309 309 306 311 311 309 309 309 309 309 310 309 310 310 310 309 306 307 306 303 304 301 300
320 316 313 313 313 311 312 307 305 308 313 315 315 317 316 314 313 311 313 312 310 310 309 309 307 310 308 308 310 310 309 310 310 310 310 309 309 307 304 305 302 301 302 299 300
318 316 313 313 313 309 308 305 304 308 312 313 315 316 314 313 311 312 312 312 310 312 310 310 309 308 310 310 311 309 309 309 309 308 306 306 304 304 305 304 300 298 299 297 299
318 315 313 310 309 308 306 304 304 311 309 311 314 314 314 310 309 311 311 311 311 312 309 307 308 310 309 310 308 311 308 307 306 303 304 303 303 305 305 304 300 296 298 296 297
316 313 311 311 306 305 305 304 306 309 318 312 314 313 312 309 309 310 310 309 309 308 304 301 309 308 309 308 308 309 306 305 304 304 302 303 305 305 303 300 299 296 296 296 297
314 312 309 306 306 305 305 304 309 314 319 312 313 310 310 306 308 310 310 306 307 306 305 304 305 306 307 307 305 304 302 303 304 302 306 304 299 300 303 300 296 295 295 295 295
314 311 309 306 304 304 304 307 312 316 313 312 310 309 307 306 307 306 305 304 305 302 306 305 307 306 305 304 303 298 303 302 302 302 304 298 297 298 298 299 294 295 294 294 294
314 309 305 303 303 303 303 305 313 314 313 308 310 309 308 305 306 304 302 301 301 305 305 305 302 304 302 304 303 299 303 300 299 299 297 297 298 302 295 294 295 296 294 293 294
317 310 305 303 302 302 304 303 312 309 308 309 307 305 305 309 303 301 303 303 298 299 304 304 303 301 298 300 299 298 295 300 299 287 293 297 297 296 294 294 294 294 293 293 293
319 308 302 302 301 301 301 305 305 305 309 310 309 305 302 309 306 302 299 301 298 297 298 300 299 299 300 298 294 293 294 295 294 288 291 293 293 293 293 293 294 293 293 292 291
319 301 303 301 301 306 301 300 303 304 310 309 307 306 304 306 302 302 298 297 297 295 296 295 296 297 294 293 291 293 292 292 292 293 291 291 292 292 293 293 292 293 292 291 291
313 298 304 303 307 305 303 301 306 309 308 307 306 305 304 302 301 301 302 299 295 294 292 293 294 292 291 291 291 291 291 291 291 291 291 292 292 293 292 293 292 291 290 291 290
304 300 302 306 307 303 305 307 308 307 306 306 305 304 299 301 301 301 299 294 294 292 292 293 294 289 292 292 291 291 291 292 292 292 292 292 291 293 292 292 290 290 290 290 290
308 303 306 310 308 304 304 306 308 306 305 304 300 297 297 298 296 298 297 294 294 293 294 293 293 293 291 292 291 291 292 292 292 292 291 292 292 291 291 290 290 290 290 290 290
308 303 306 309 307 306 305 306 307 306 303 300 297 298 299 298 296 297 295 293 293 293 294 294 293 294 294 294 292 291 292 292 292 292 292 292 291 290 289 289 290 290 290 289 288
314 305 302 305 307 308 307 306 306 304 303 302 300 298 297 299 299 296 294 293 294 292 292 292 292 292 291 292 292 292 293 292 291 291 290 289 289 290 290 290 290 289 287 286 286
312 311 306 305 305 308 308 307 306 304 302 302 299 298 296 297 295 295 294 294 293 293 293 292 292 289 288 290 290 288 290 291 289 288 288 288 289 289 290 290 288 286 285 286 282

GFSSW_850_thetae_006.txt.gz
Theta_e
315 314 314 314 315 314 313 312 314 315 315 316 318 317 316 316 315 316 316 315 315 315 315 314 314 315 316 315 316 315 320 320 319 319 319 315 316 314 313 313 312 312 313 313 313
315 314 315 315 315 315 314 313 314 315 315 316 317 317 316 316 316 316 316 316 316 316 315 315 315 315 316 315 316 318 320 319 317 317 318 317 315 313 314 316 316 314 314 312 312
318 316 316 315 315 315 314 314 314 316 317 317 318 317 316 316 316 316 317 318 317 317 316 315 315 316 317 314 314 316 320 315 315 314 314 315 315 312 314 317 314 312 312 312 312
320 318 317 316 315 315 315 315 316 318 318 318 319 318 316 315 318 316 318 316 316 316 315 316 316 317 318 318 313 317 315 314 314 313 313 314 312 314 312 314 311 311 312 314 311
320 319 318 317 316 316 315 316 317 319 318 319 320 318 316 316 316 317 316 312 312 313 313 314 315 315 318 316 314 315 315 312 311 310 310 310 313 312 312 312 313 313 312 311 306
321 319 318 317 316 316 316 317 319 320 319 319 319 317 317 318 317 317 315 313 312 311 313 314 315 315 316 315 314 312 312 312 310 310 309 312 312 310 312 312 311 311 310 306 304
322 319 319 318 317 317 318 319 320 321 320 319 319 317 317 316 316 315 315 314 313 312 312 313 313 313 313 316 311 310 313 316 313 312 310 310 314 312 313 311 309 311 307 304 303
322 319 319 319 317 317 319 320 321 321 319 319 317 317 316 316 313 311 311 314 313 312 312 312 312 312 311 310 312 314 314 315 315 313 309 313 313 314 312 309 310 309 306 303 302
322 320 320 319 317 317 319 320 321 320 318 319 317 317 316 316 313 310 311 312 312 311 312 312 311 311 312 316 317 317 316 314 313 313 312 313 314 314 310 308 308 306 303 302 301
322 321 319 318 316 317 318 320 321 319 318 318 317 317 316 316 314 310 311 312 310 310 312 313 312 315 316 316 316 317 317 314 313 313 313 314 315 313 309 307 305 304 302 300 300
322 321 319 317 316 317 317 320 317 315 316 316 315 314 316 314 315 312 312 311 309 313 314 312 311 317 314 312 313 314 315 315 312 313 313 313 312 311 307 304 303 302 300 298 299
322 320 319 316 315 313 314 313 306 309 312 314 314 317 316 314 314 311 310 310 311 314 314 312 309 313 311 311 312 313 312 311 313 312 310 310 310 308 307 301 300 300 298 298 298
321 320 317 315 314 312 311 310 307 307 312 313 313 316 314 313 311 311 310 311 312 314 314 310 308 310 311 312 311 310 311 313 311 309 309 308 308 307 305 301 299 298 297 297 296
320 319 316 314 311 311 309 309 306 309 317 316 313 315 313 311 311 311 310 309 312 312 310 308 309 311 311 311 309 310 309 308 307 306 306 306 305 307 307 302 299 298 297 296 295
320 318 315 313 309 308 308 308 307 310 330 314 314 312 312 309 310 310 310 308 311 309 306 307 309 309 311 309 309 312 305 304 304 305 305 305 306 308 307 301 298 297 297 296 294
320 319 314 311 309 308 308 307 309 320 326 316 314 313 312 308 309 309 309 306 306 308 308 307 306 308 309 307 306 302 303 304 305 306 306 303 301 304 302 297 297 296 295 294 293
320 320 313 311 307 306 307 308 321 322 315 315 312 311 310 311 309 309 308 308 308 305 307 308 309 306 304 307 305 302 304 304 306 308 307 302 300 301 297 296 296 296 294 293 293
320 320 314 310 306 304 304 314 324 321 319 310 311 310 312 308 309 307 305 307 305 308 309 308 307 309 304 302 302 304 304 301 300 303 302 300 299 301 297 296 295 294 293 293 292
320 320 318 311 304 302 304 314 323 317 313 310 311 313 308 309 307 305 305 305 306 306 306 305 305 301 298 300 301 304 302 299 298 297 299 299 300 299 297 296 295 294 292 292 291
319 319 319 311 301 302 306 313 311 311 309 310 317 314 316 311 310 305 304 304 303 300 300 304 303 301 298 298 296 297 298 299 298 296 297 297 297 297 295 295 294 293 292 291 291
319 315 311 306 300 304 305 306 306 306 309 311 312 313 311 311 310 307 304 302 301 297 300 299 300 299 296 297 297 296 296 295 294 294 295 295 297 296 295 294 293 293 291 291 291
317 303 308 302 308 308 308 304 304 306 307 308 309 309 311 310 307 304 305 303 299 297 299 296 297 297 296 294 294 294 296 294 293 293 293 294 294 296 295 294 292 291 291 291 291
314 307 306 304 309 307 306 307 306 309 309 308 309 308 307 306 307 305 304 296 295 296 296 295 296 297 295 294 293 294 293 293 293 293 293 294 295 295 295 293 291 291 291 291 290
315 305 306 309 308 308 311 309 309 307 308 308 307 304 301 302 300 301 301 295 294 294 294 294 295 296 297 297 294 293 293 293 293 293 293 294 294 295 293 292 291 291 290 289 288
313 307 308 310 308 309 310 312 312 311 307 305 302 303 303 303 301 301 299 295 295 294 295 294 294 294 294 294 294 294 293 293 292 293 292 293 293 293 292 291 291 290 289 287 288
317 310 304 307 313 308 308 310 309 310 306 305 305 301 301 305 304 301 298 297 297 294 294 294 294 293 293 293 293 293 293 293 293 293 293 294 294 292 291 291 290 289 287 287 286
315 315 313 315 310 310 314 311 312 309 307 307 303 301 300 303 301 298 299 299 296 295 294 293 293 293 297 291 291 292 293 293 292 292 292 291 291 291 291 291 289 287 288 285 283

GFSSW_850_thetae_009.txt.gz
Theta_e
315 315 315 315 315 314 314 314 314 316 317 316 318 318 316 315 316 316 316 316 315 315 315 315 315 315 316 319 318 318 323 322 321 320 321 318 319 318 316 315 316 315 314 314 314
318 316 316 315 315 315 314 315 315 317 318 316 318 318 316 316 316 317 317 317 317 317 315 315 317 316 319 318 319 321 323 321 319 319 319 318 317 317 316 317 317 315 315 314 313
320 318 317 317 316 315 315 315 316 318 319 316 317 318 316 315 318 317 316 314 314 314 315 315 316 317 320 318 319 320 321 319 318 317 317 316 317 315 315 317 314 314 314 313 309
321 320 319 318 318 317 316 316 317 319 320 317 317 318 315 316 321 317 312 312 312 312 313 315 317 319 320 320 318 318 318 317 317 315 315 316 314 315 315 315 313 312 313 308 308
322 320 319 319 319 319 318 318 319 321 320 318 318 318 316 318 317 315 313 313 311 312 312 313 316 317 319 318 318 318 318 315 314 313 313 313 314 314 315 314 311 312 309 307 306
322 321 319 320 320 320 319 319 320 321 321 318 320 317 317 320 317 315 314 313 311 311 312 313 315 315 317 318 317 317 315 315 314 314 313 314 313 312 315 313 310 310 307 306 305
323 321 320 320 321 320 320 320 321 322 321 318 319 318 319 318 315 313 311 313 312 311 312 313 312 314 316 318 315 314 316 317 315 314 314 313 314 315 314 311 310 310 307 305 304
323 322 321 321 321 320 320 321 322 322 321 318 317 317 318 313 310 310 311 312 310 311 312 313 312 313 314 314 316 316 317 318 316 314 312 313 314 315 314 311 311 308 306 305 303
322 322 321 321 320 320 321 322 323 322 319 319 317 319 317 314 312 311 310 311 309 311 312 313 312 314 315 318 318 319 319 318 316 314 314 313 314 315 313 310 309 306 304 303 302
319 322 321 320 320 319 321 322 322 319 317 319 318 319 315 318 315 312 311 310 310 311 315 315 315 316 319 315 316 315 314 316 316 315 314 314 314 312 311 309 307 304 302 301 301
317 321 321 320 319 318 319 322 319 319 319 316 316 316 315 315 314 313 311 309 310 314 318 316 315 317 318 313 313 314 315 315 314 314 312 311 311 311 309 306 305 303 301 299 299
315 319 320 320 318 316 318 316 311 313 314 316 315 315 316 315 314 313 310 313 313 317 318 318 319 315 313 313 314 314 313 312 312 313 311 310 309 310 308 304 303 301 299 298 297
314 318 319 319 318 313 315 314 313 309 315 315 313 316 315 314 313 313 310 311 314 317 317 315 316 311 313 314 312 312 311 312 311 311 310 309 309 308 304 302 300 300 299 298 296
313 316 319 318 313 314 311 313 312 309 319 319 315 316 313 313 313 311 310 311 316 315 313 311 311 312 313 312 310 311 308 308 309 309 308 308 307 310 306 304 301 299 298 297 295
312 315 320 318 315 310 310 312 312 311 328 315 316 312 313 312 312 312 311 309 313 314 310 313 308 309 309 310 310 311 305 306 307 308 308 308 307 309 310 307 300 299 297 295 295
312 313 319 315 311 310 308 310 311 320 325 318 316 316 315 311 312 311 311 308 307 309 309 309 308 310 311 310 308 304 306 306 307 307 308 308 306 308 307 302 299 298 296 295 294
312 313 319 315 309 308 307 309 321 323 318 320 317 315 315 316 315 312 313 312 313 314 315 311 311 309 306 309 308 306 306 307 312 313 313 305 303 305 301 298 297 296 295 294 294
312 316 319 318 311 304 305 314 323 322 323 313 314 313 316 315 316 311 311 314 310 310 309 311 312 310 307 307 306 304 304 305 306 309 308 304 302 303 300 297 297 295 294 294 293
318 316 318 319 313 304 306 318 319 321 320 316 313 317 320 312 310 310 311 314 311 309 310 309 308 303 300 302 303 306 304 302 302 302 300 303 303 300 299 298 297 295 294 293 292
317 316 316 318 311 301 307 316 318 317 312 313 320 321 321 320 314 313 314 311 307 306 305 308 307 305 299 299 298 299 300 300 300 301 303 304 303 302 298 297 296 295 294 293 292
317 316 313 315 308 306 311 314 315 315 312 315 318 320 319 318 316 316 316 310 307 303 302 304 303 303 299 299 302 297 298 297 297 299 299 301 303 298 297 296 294 294 293 292 292
315 314 313 305 308 309 312 314 312 310 308 312 311 315 318 318 318 315 316 313 305 302 302 302 302 302 301 297 296 296 297 298 297 299 296 297 297 299 297 296 294 293 292 292 291
315 312 312 302 313 313 311 310 309 311 310 311 311 311 314 314 315 314 313 300 302 301 302 298 299 301 302 297 295 295 295 296 297 295 298 298 298 297 296 297 294 293 292 291 290
314 311 307 307 310 313 315 314 313 309 310 311 313 314 312 310 311 314 308 298 298 299 296 297 298 301 308 307 296 295 295 296 295 296 298 297 297 297 297 296 294 292 292 291 289
314 310 311 313 310 311 314 315 316 317 311 311 311 312 311 311 313 309 307 298 296 296 296 296 298 299 299 298 297 296 295 295 295 296 296 297 296 296 295 295 292 292 291 290 289
315 313 310 310 316 313 313 315 315 316 317 314 312 313 309 311 312 316 306 301 300 297 297 297 299 296 295 295 295 295 295 296 295 295 295 295 295 295 295 292 292 291 290 289 289
313 314 313 315 314 315 315 314 316 315 315 315 315 313 311 308 305 301 302 300 301 298 298 296 297 296 298 294 293 297 296 295 295 295 294 294 295 295 293 292 291 290 289 289 287